| time (UTC) | temp F | wind direction | speed MPH | gust MPH | rain 1hr in | rain 24hr in | rain mn in | humidity % | barometer mb |
| 20260504234301 | 78 | 166 | 3.0 | 12.0 | 0.00 | 0.00 | 0.00 | 71 | 1010.4 |
| 20260504233759 | 78 | 172 | 3.0 | 9.0 | 0.00 | 0.00 | 0.00 | 70 | 1010.5 |
| 20260504233301 | 79 | 169 | 2.0 | 10.0 | 0.00 | 0.00 | 0.00 | 70 | 1010.5 |
| 20260504232759 | 79 | 129 | 2.0 | 10.0 | 0.00 | 0.00 | 0.00 | 71 | 1010.6 |
| 20260504232530 | 78 | 178 | 3.0 | 10.0 | 0.00 | 0.00 | 0.00 | 71 | 1010.6 |
| 20260504231758 | 78 | 198 | 3.0 | 10.0 | 0.00 | 0.00 | 0.00 | 71 | 1010.5 |
| 20260504231258 | 79 | 162 | 2.0 | 8.0 | 0.00 | 0.00 | 0.00 | 70 | 1010.7 |
| 20260504230755 | 79 | 200 | 2.0 | 10.0 | 0.00 | 0.00 | 0.00 | 70 | 1010.7 |
| 20260504230256 | 79 | 179 | 2.0 | 10.0 | 0.00 | 0.00 | 0.00 | 70 | 1010.8 |
| 20260504230026 | 79 | 190 | 2.0 | 9.0 | 0.00 | 0.00 | 0.00 | 70 | 1010.8 |
| 20260504225914 | 79 | 129 | 3.0 | 11.0 | 0.00 | 0.00 | 0.00 | 69 | 1010.9 |
| 20260504224753 | 79 | 163 | 2.0 | 11.0 | 0.00 | 0.00 | 0.00 | 69 | 1010.9 |
| 20260504224256 | 79 | 160 | 3.0 | 11.0 | 0.00 | 0.00 | 0.00 | 69 | 1010.8 |
| 20260504223755 | 79 | 238 | 3.0 | 11.0 | 0.00 | 0.00 | 0.00 | 69 | 1010.9 |
| 20260504223526 | 79 | 126 | 3.0 | 10.0 | 0.00 | 0.00 | 0.00 | 68 | 1010.9 |
| 20260504222753 | 79 | 86 | 3.0 | 13.0 | 0.00 | 0.00 | 0.00 | 68 | 1010.9 |
| 20260504222255 | 80 | 209 | 3.0 | 13.0 | 0.00 | 0.00 | 0.00 | 68 | 1011.0 |
| 20260504221751 | 80 | 66 | 3.0 | 10.0 | 0.00 | 0.00 | 0.00 | 68 | 1011.1 |
| 20260504221518 | 80 | 98 | 3.0 | 10.0 | 0.00 | 0.00 | 0.00 | 68 | 1011.1 |
| 20260504220746 | 79 | 187 | 2.0 | 9.0 | 0.00 | 0.00 | 0.00 | 68 | 1011.2 |
| 20260504220247 | 80 | 167 | 2.0 | 7.0 | 0.00 | 0.00 | 0.00 | 68 | 1011.3 |
| 20260504215736 | 80 | 206 | 2.0 | 7.0 | 0.00 | 0.00 | 0.00 | 68 | 1011.3 |
| 20260504215511 | 80 | 169 | 2.0 | 7.0 | 0.00 | 0.00 | 0.00 | 65 | 1011.3 |
| 20260504214739 | 80 | 157 | 2.0 | 7.0 | 0.00 | 0.00 | 0.00 | 66 | 1011.3 |
| 20260504214238 | 80 | 105 | 2.0 | 7.0 | 0.00 | 0.00 | 0.00 | 65 | 1011.4 |
| 20260504213737 | 80 | 209 | 2.0 | 7.0 | 0.00 | 0.00 | 0.00 | 67 | 1011.4 |
| 20260504213238 | 80 | 125 | 2.0 | 7.0 | 0.00 | 0.00 | 0.00 | 66 | 1011.5 |
| 20260504212737 | 80 | 82 | 2.0 | 8.0 | 0.00 | 0.00 | 0.00 | 65 | 1011.5 |
| 20260504212238 | 81 | 165 | 2.0 | 9.0 | 0.00 | 0.00 | 0.00 | 65 | 1011.6 |
| 20260504212010 | 81 | 138 | 2.0 | 9.0 | 0.00 | 0.00 | 0.00 | 64 | 1011.5 |
| 20260504211859 | 81 | 159 | 2.0 | 7.0 | 0.00 | 0.00 | 0.00 | 64 | 1011.6 |
| 20260504210739 | 81 | 144 | 2.0 | 10.0 | 0.00 | 0.00 | 0.00 | 63 | 1011.6 |
| 20260504210238 | 82 | 218 | 3.0 | 10.0 | 0.00 | 0.00 | 0.00 | 65 | 1011.7 |
| 20260504205738 | 81 | 128 | 2.0 | 7.0 | 0.00 | 0.00 | 0.00 | 65 | 1011.8 |
| 20260504205237 | 81 | 136 | 2.0 | 5.0 | 0.00 | 0.00 | 0.00 | 63 | 1012.0 |
| 20260504204736 | 82 | 208 | 3.0 | 6.0 | 0.00 | 0.00 | 0.00 | 64 | 1012.0 |
| 20260504204506 | 81 | 193 | 3.0 | 7.0 | 0.00 | 0.00 | 0.00 | 63 | 1012.0 |
| 20260504203733 | 82 | 156 | 3.0 | 7.0 | 0.00 | 0.00 | 0.00 | 62 | 1012.0 |
| 20260504203236 | 82 | 159 | 3.0 | 10.0 | 0.00 | 0.00 | 0.00 | 63 | 1012.0 |
| 20260504202734 | 82 | 141 | 2.0 | 10.0 | 0.00 | 0.00 | 0.00 | 63 | 1012.2 |
| 20260504202230 | 81 | 140 | 3.0 | 8.0 | 0.00 | 0.00 | 0.00 | 64 | 1012.2 |
| 20260504201729 | 81 | 132 | 3.0 | 8.0 | 0.00 | 0.00 | 0.00 | 63 | 1012.4 |
| 20260504201230 | 81 | 208 | 2.0 | 7.0 | 0.00 | 0.00 | 0.00 | 62 | 1012.5 |
| 20260504200729 | 80 | 128 | 2.0 | 10.0 | 0.00 | 0.00 | 0.00 | 63 | 1012.5 |
| 20260504200230 | 81 | 180 | 3.0 | 10.0 | 0.00 | 0.00 | 0.00 | 63 | 1012.7 |
| 20260504195724 | 81 | 152 | 3.0 | 10.0 | 0.00 | 0.00 | 0.00 | 64 | 1012.7 |
| 20260504195226 | 81 | 194 | 3.0 | 10.0 | 0.00 | 0.00 | 0.00 | 61 | 1012.8 |
| 20260504194724 | 82 | 200 | 3.0 | 10.0 | 0.00 | 0.00 | 0.00 | 62 | 1012.8 |
| 20260504194226 | 82 | 196 | 3.0 | 10.0 | 0.00 | 0.00 | 0.00 | 61 | 1012.8 |
| 20260504193722 | 81 | 93 | 3.0 | 10.0 | 0.00 | 0.00 | 0.00 | 62 | 1013.0 |
| 20260504193225 | 82 | 136 | 2.0 | 10.0 | 0.00 | 0.00 | 0.00 | 61 | 1012.9 |
| 20260504192950 | 82 | 138 | 3.0 | 10.0 | 0.00 | 0.00 | 0.00 | 61 | 1012.9 |
| 20260504192219 | 81 | 144 | 2.0 | 9.0 | 0.00 | 0.00 | 0.00 | 61 | 1013.1 |
| 20260504191718 | 82 | 138 | 3.0 | 8.0 | 0.00 | 0.00 | 0.00 | 59 | 1013.2 |
| 20260504191215 | 82 | 167 | 2.0 | 8.0 | 0.00 | 0.00 | 0.00 | 61 | 1013.1 |
| 20260504190719 | 81 | 171 | 3.0 | 8.0 | 0.00 | 0.00 | 0.00 | 62 | 1013.4 |
| 20260504190715 | 81 | 163 | 2.0 | 7.0 | 0.00 | 0.00 | 0.00 | 64 | 1013.2 |
| 20260504185715 | 80 | 163 | 3.0 | 8.0 | 0.00 | 0.00 | 0.00 | 62 | 1013.3 |
| 20260504185211 | 81 | 161 | 3.0 | 9.0 | 0.00 | 0.00 | 0.00 | 61 | 1013.4 |
| 20260504184710 | 81 | 207 | 3.0 | 9.0 | 0.00 | 0.00 | 0.00 | 61 | 1013.5 |
| 20260504184210 | 82 | 121 | 3.0 | 9.0 | 0.00 | 0.00 | 0.00 | 62 | 1013.6 |
| 20260504183940 | 81 | 182 | 3.0 | 9.0 | 0.00 | 0.00 | 0.00 | 60 | 1013.6 |
| 20260504183206 | 81 | 102 | 3.0 | 9.0 | 0.00 | 0.00 | 0.00 | 64 | 1013.5 |
| 20260504182709 | 81 | 195 | 2.0 | 10.0 | 0.00 | 0.00 | 0.00 | 62 | 1013.4 |
| 20260504182209 | 81 | 99 | 2.0 | 10.0 | 0.00 | 0.00 | 0.00 | 64 | 1013.6 |
| 20260504181708 | 81 | 140 | 3.0 | 10.0 | 0.00 | 0.00 | 0.00 | 62 | 1013.6 |
| 20260504181437 | 81 | 155 | 3.0 | 11.0 | 0.00 | 0.00 | 0.00 | 60 | 1013.7 |
| 20260504181324 | 81 | 165 | 2.0 | 11.0 | 0.00 | 0.00 | 0.00 | 62 | 1013.9 |
| 20260504180201 | 80 | 180 | 3.0 | 11.0 | 0.00 | 0.00 | 0.00 | 64 | 1014.0 |
| 20260504175700 | 80 | 146 | 3.0 | 11.0 | 0.00 | 0.00 | 0.00 | 63 | 1014.1 |
| 20260504175200 | 80 | 144 | 3.0 | 10.0 | 0.00 | 0.00 | 0.00 | 63 | 1014.1 |
| 20260504174701 | 79 | 128 | 2.0 | 8.0 | 0.00 | 0.00 | 0.00 | 64 | 1014.1 |
| 20260504174432 | 79 | 140 | 2.0 | 8.0 | 0.00 | 0.00 | 0.00 | 63 | 1014.3 |
| 20260504173658 | 80 | 165 | 3.0 | 8.0 | 0.00 | 0.00 | 0.00 | 62 | 1014.2 |
| 20260504173427 | 80 | 166 | 2.0 | 8.0 | 0.00 | 0.00 | 0.00 | 61 | 1014.2 |
| 20260504172656 | 80 | 150 | 2.0 | 6.0 | 0.00 | 0.00 | 0.00 | 62 | 1014.4 |
| 20260504172154 | 80 | 90 | 3.0 | 10.0 | 0.00 | 0.00 | 0.00 | 62 | 1014.5 |
| 20260504171658 | 80 | 152 | 3.0 | 10.0 | 0.00 | 0.00 | 0.00 | 64 | 1014.7 |
| 20260504171152 | 79 | 5 | 3.0 | 10.0 | 0.00 | 0.00 | 0.00 | 62 | 1014.7 |
| 20260504170652 | 79 | 134 | 3.0 | 10.0 | 0.00 | 0.00 | 0.00 | 65 | 1014.8 |
| 20260504170150 | 79 | 343 | 3.0 | 9.0 | 0.00 | 0.00 | 0.00 | 62 | 1014.8 |
| 20260504160142 | 77 | 160 | 2.0 | 11.0 | 0.00 | 0.00 | 0.00 | 68 | 1015.7 |
| 20260504151130 | 73 | 136 | 4.0 | 11.0 | 0.00 | 0.00 | 0.00 | 73 | 1015.7 |
| 20260504150628 | 73 | 121 | 3.0 | 8.0 | 0.00 | 0.00 | 0.00 | 73 | 1015.7 |
| 20260504150401 | 73 | 142 | 2.0 | 7.0 | 0.00 | 0.00 | 0.00 | 74 | 1015.6 |
| 20260504141125 | 67 | 152 | 2.0 | 10.0 | 0.00 | 0.00 | 0.00 | 80 | 1015.8 |
| 20260504140620 | 66 | 125 | 1.0 | 5.0 | 0.00 | 0.00 | 0.00 | 81 | 1015.7 |
| 20260504140123 | 65 | 145 | 2.0 | 7.0 | 0.00 | 0.00 | 0.00 | 82 | 1015.6 |
| 20260504140117 | 66 | 137 | 2.0 | 7.0 | 0.00 | 0.00 | 0.00 | 82 | 1015.6 |
| 20260504130611 | 61 | 98 | 1.0 | 5.0 | 0.00 | 0.00 | 0.00 | 83 | 1015.7 |
| 20260504130111 | 61 | 119 | 0.0 | 2.0 | 0.00 | 0.00 | 0.00 | 83 | 1015.6 |
| 20260504120107 | 60 | 154 | 0.0 | 0.0 | 0.00 | 0.00 | 0.00 | 80 | 1015.4 |
| 20260504110601 | 61 | 154 | 0.0 | 0.0 | 0.00 | 0.00 | 0.00 | 80 | 1015.3 |
| 20260504110104 | 61 | 154 | 0.0 | 1.0 | 0.00 | 0.00 | 0.00 | 80 | 1015.2 |
| 20260504100551 | 62 | 154 | 0.0 | 0.0 | 0.00 | 0.00 | 0.00 | 78 | 1015.5 |
| 20260504081520 | 62 | 154 | 0.0 | 1.0 | 0.00 | 0.00 | 0.00 | 75 | 1016.1 |
| 20260504081018 | 62 | 154 | 0.0 | 0.0 | 0.00 | 0.00 | 0.00 | 75 | 1016.2 |
| 20260504080516 | 63 | 154 | 0.0 | 0.0 | 0.00 | 0.00 | 0.00 | 75 | 1016.4 |
| 20260504050711 | 66 | 146 | 0.0 | 1.0 | 0.00 | 0.00 | 0.00 | 68 | 1018.1 |
| 20260504050209 | 66 | 146 | 0.0 | 1.0 | 0.00 | 0.00 | 0.00 | 68 | 1018.1 |
| 20260504045439 | 66 | 146 | 0.0 | 1.0 | 0.00 | 0.00 | 0.00 | 67 | 1018.1 |
| 20260504044939 | 66 | 146 | 0.0 | 1.0 | 0.00 | 0.00 | 0.00 | 67 | 1018.2 |
| 20260504044440 | 66 | 146 | 0.0 | 1.0 | 0.00 | 0.00 | 0.00 | 67 | 1018.2 |
| 20260504043938 | 67 | 146 | 0.0 | 1.0 | 0.00 | 0.00 | 0.00 | 66 | 1018.2 |
| 20260504043439 | 67 | 146 | 0.0 | 1.0 | 0.00 | 0.00 | 0.00 | 66 | 1018.3 |
| 20260504042938 | 67 | 146 | 0.0 | 1.0 | 0.00 | 0.00 | 0.00 | 66 | 1018.2 |
| 20260504042439 | 67 | 146 | 0.0 | 3.0 | 0.00 | 0.00 | 0.00 | 65 | 1018.3 |
| 20260504041937 | 67 | 146 | 0.0 | 3.0 | 0.00 | 0.00 | 0.00 | 65 | 1018.3 |
| 20260504041441 | 67 | 146 | 0.0 | 3.0 | 0.00 | 0.00 | 0.00 | 65 | 1018.3 |
| 20260504040939 | 68 | 146 | 0.0 | 3.0 | 0.00 | 0.00 | 0.00 | 65 | 1018.3 |
| 20260504040710 | 68 | 140 | 0.0 | 1.0 | 0.00 | 0.00 | 0.00 | 65 | 1018.2 |
| 20260504035938 | 68 | 140 | 0.0 | 3.0 | 0.00 | 0.00 | 0.00 | 64 | 1018.2 |
| 20260504035437 | 68 | 140 | 0.0 | 3.0 | 0.00 | 0.00 | 0.00 | 64 | 1018.2 |
| 20260504034937 | 68 | 140 | 0.0 | 3.0 | 0.00 | 0.00 | 0.00 | 64 | 1018.2 |
| 20260504034437 | 69 | 140 | 0.0 | 3.0 | 0.00 | 0.00 | 0.00 | 64 | 1018.3 |
| 20260504034207 | 69 | 140 | 0.0 | 1.0 | 0.00 | 0.00 | 0.00 | 63 | 1018.3 |
| 20260504033707 | 69 | 140 | 0.0 | 3.0 | 0.00 | 0.00 | 0.00 | 63 | 1018.3 |
| 20260504033208 | 69 | 140 | 1.0 | 3.0 | 0.00 | 0.00 | 0.00 | 63 | 1018.3 |
| 20260504032707 | 69 | 140 | 1.0 | 4.0 | 0.00 | 0.00 | 0.00 | 63 | 1018.3 |
| 20260504031934 | 69 | 162 | 1.0 | 4.0 | 0.00 | 0.00 | 0.00 | 63 | 1018.3 |
| 20260504031434 | 70 | 162 | 0.0 | 4.0 | 0.00 | 0.00 | 0.00 | 62 | 1018.2 |
| 20260504030935 | 70 | 168 | 0.0 | 2.0 | 0.00 | 0.00 | 0.00 | 62 | 1018.3 |
| 20260504030435 | 70 | 168 | 1.0 | 4.0 | 0.00 | 0.00 | 0.00 | 62 | 1018.2 |
| 20260504025932 | 70 | 168 | 1.0 | 4.0 | 0.00 | 0.00 | 0.00 | 62 | 1018.1 |
| 20260504025433 | 71 | 166 | 1.0 | 4.0 | 0.00 | 0.00 | 0.00 | 60 | 1018.0 |
| 20260504024934 | 71 | 180 | 0.0 | 5.0 | 0.00 | 0.00 | 0.00 | 59 | 1018.0 |
| 20260504024929 | 71 | 102 | 1.0 | 5.0 | 0.00 | 0.00 | 0.00 | 59 | 1018.0 |
| 20260504023926 | 71 | 173 | 1.0 | 3.0 | 0.00 | 0.00 | 0.00 | 59 | 1018.0 |
| 20260504023427 | 71 | 173 | 1.0 | 3.0 | 0.00 | 0.00 | 0.00 | 58 | 1018.0 |
| 20260504023200 | 72 | 173 | 1.0 | 4.0 | 0.00 | 0.00 | 0.00 | 58 | 1018.0 |
| 20260504022657 | 72 | 173 | 1.0 | 4.0 | 0.00 | 0.00 | 0.00 | 58 | 1018.1 |
| 20260504022159 | 72 | 148 | 1.0 | 7.0 | 0.00 | 0.00 | 0.00 | 58 | 1018.0 |
| 20260504021427 | 72 | 155 | 2.0 | 7.0 | 0.00 | 0.00 | 0.00 | 57 | 1017.9 |
| 20260504021157 | 73 | 138 | 2.0 | 7.0 | 0.00 | 0.00 | 0.00 | 56 | 1017.8 |
| 20260504020426 | 73 | 136 | 2.0 | 7.0 | 0.00 | 0.00 | 0.00 | 55 | 1017.8 |
| 20260504020157 | 73 | 134 | 2.0 | 11.0 | 0.00 | 0.00 | 0.00 | 55 | 1017.9 |
| 20260504015427 | 73 | 163 | 2.0 | 11.0 | 0.00 | 0.00 | 0.00 | 54 | 1017.9 |
| 20260504015155 | 73 | 169 | 3.0 | 12.0 | 0.00 | 0.00 | 0.00 | 54 | 1017.9 |
| 20260504014424 | 73 | 163 | 3.0 | 12.0 | 0.00 | 0.00 | 0.00 | 53 | 1017.8 |
| 20260504014158 | 73 | 0 | 2.0 | 6.0 | 0.00 | 0.00 | 0.00 | 53 | 1017.7 |
| 20260504013652 | 74 | 0 | 2.0 | 10.0 | 0.00 | 0.00 | 0.00 | 53 | 1017.7 |
| 20260504012926 | 74 | 0 | 3.0 | 10.0 | 0.00 | 0.00 | 0.00 | 52 | 1017.7 |
| 20260504012422 | 74 | 0 | 2.0 | 11.0 | 0.00 | 0.00 | 0.00 | 52 | 1017.6 |
| 20260504012418 | 74 | 0 | 2.0 | 8.0 | 0.00 | 0.00 | 0.00 | 52 | 1017.7 |
| 20260504011418 | 74 | 0 | 2.0 | 11.0 | 0.00 | 0.00 | 0.00 | 51 | 1017.6 |
| 20260504010916 | 74 | 0 | 2.0 | 8.0 | 0.00 | 0.00 | 0.00 | 51 | 1017.5 |
| 20260504010414 | 74 | 0 | 2.0 | 8.0 | 0.00 | 0.00 | 0.00 | 51 | 1017.6 |
| 20260504010147 | 75 | 0 | 2.0 | 8.0 | 0.00 | 0.00 | 0.00 | 51 | 1017.6 |
| 20260504005414 | 75 | 0 | 3.0 | 8.0 | 0.00 | 0.00 | 0.00 | 50 | 1017.5 |
| 20260504004915 | 75 | 0 | 2.0 | 6.0 | 0.00 | 0.00 | 0.00 | 51 | 1017.5 |
| 20260504004646 | 75 | 0 | 2.0 | 6.0 | 0.00 | 0.00 | 0.00 | 50 | 1017.6 |
| 20260504003913 | 75 | 0 | 2.0 | 6.0 | 0.00 | 0.00 | 0.00 | 50 | 1017.6 |
| 20260504003411 | 75 | 0 | 2.0 | 6.0 | 0.00 | 0.00 | 0.00 | 49 | 1017.5 |
| 20260504002909 | 76 | 0 | 2.0 | 6.0 | 0.00 | 0.00 | 0.00 | 50 | 1017.4 |
| 20260504002408 | 76 | 0 | 1.0 | 6.0 | 0.00 | 0.00 | 0.00 | 51 | 1017.5 |
| 20260504001904 | 76 | 0 | 1.0 | 8.0 | 0.00 | 0.00 | 0.00 | 51 | 1017.5 |
| 20260504001402 | 76 | 0 | 1.0 | 8.0 | 0.00 | 0.00 | 0.00 | 51 | 1017.5 |
| 20260504001135 | 76 | 131 | 2.0 | 8.0 | 0.00 | 0.00 | 0.00 | 49 | 1017.3 |
| 20260504000401 | 76 | 109 | 3.0 | 8.0 | 0.00 | 0.00 | 0.00 | 49 | 1017.5 |
| 20260504000128 | 76 | 146 | 2.0 | 9.0 | 0.00 | 0.00 | 0.00 | 48 | 1017.5 |
| 20260503235359 | 76 | 145 | 2.0 | 9.0 | 0.00 | 0.00 | 0.00 | 49 | 1017.6 |
| 20260503234858 | 76 | 163 | 3.0 | 11.0 | 0.00 | 0.00 | 0.00 | 48 | 1017.6 |